Location: Lanoux
(43.1180°N, 1.4255°E)
Time: 23:16:07
(UTC+00:00)

Cosmos 1844 Rocket - Pass Details

Date: 13 December 2025
Orbit: 822 x 845 km, 71.0° (Epoch: 19 January)

Event Time Altitude Azimuth Distance (km) Brightness Sun altitude
Rises 17:39:03 0° 345° (NNW) 3,403 5.8 -13.9°
Reaches altitude 10° 17:42:17 10° 4° (N) 2,468 4.9 -14.5°
Enters shadow 17:45:55 19° 44° (NE) 1,934 4.1 -15.1°
